sat.trackr.live / text

‹ back to catalog

STARLINK-11080 [DTC]

NORAD 60727 · 2024-152H

PAYLOAD ACTIVE UNKNOWN

§ Identity

Operator
Country
US
Launch date
2024-08-28
Launch site
AFETR
Launch vehicle
Mass (kg)
RCS (m²)

Purposes: comms

External: N2YO · Heavens-Above · Gunter

§ Orbital elements

Epoch: 2026-05-25T03:22:25.353408Z

Period
91.74 min
Inclination
53.1586°
Eccentricity
0.0000960
Mean motion
15.69706257 rev/d
Perigee alt
359.1 km
Apogee alt
360.4 km
Semi-major
6,737.9 km
B*
1.1139e-5
RAAN
99.3006°
Arg perigee
77.0578°
Mean anomaly
283.0547°
Rev number
10,097

§ Raw data

STARLINK-11080 [DTC]1 60727U 24152H   26145.14057122  .00000761  00000+0  11139-4 0  99982 60727  53.1586  99.3006 0000960  77.0578 283.0547 15.69706257100972

JSON: /api/v1/satellites/60727 · /tle

For live sub-satellite position, see the globe view (requires WebGL).

§ Visibility from observer

Set your observer location to see the next 7 days of passes ≥ 10°. The values pass through the URL so the page stays shareable.

No JS? Fill the form by hand. The geolocation button needs JavaScript.